Date,TemperatureHighF,TemperatureAvgF,TemperatureLowF,DewpointHighF,DewpointAvgF,DewpointLowF,HumidityHigh,HumidityAvg,HumidityLow,PressureMaxIn,PressureMinIn,WindSpeedMaxMPH,WindSpeedAvgMPH,GustSpeedMaxMPH,PrecipitationSumIn
2013-7-1,76,72,68,73,70,67,100,95,81,29.99,29.85,7,2,10,0.47
2013-7-2,83,70,61,74,68,60,99,92,74,30.14,29.99,9,3,19,0.00
2013-7-3,85,73,61,73,67,60,98,83,62,30.15,30.06,11,3,15,0.00
2013-7-4,91,81,72,74,71,68,94,72,48,30.12,30.00,13,6,21,0.00
2013-7-5,92,82,74,74,71,69,90,71,49,30.07,29.95,15,5,22,0.00
2013-7-6,86,79,72,72,69,64,88,73,52,30.00,29.92,13,5,23,0.00
2013-7-7,89,78,69,75,67,59,82,69,51,29.95,29.84,10,3,13,0.00
2013-7-8,83,74,64,76,70,63,95,86,69,30.00,29.84,12,1,15,0.73
2013-7-9,74,68,64,68,65,62,97,91,79,30.04,29.99,7,1,10,0.00
2013-7-10,80,70,65,74,68,64,97,95,80,30.01,29.72,9,3,13,0.66
2013-7-11,82,74,66,73,70,62,98,88,65,29.88,29.68,9,2,13,0.11
2013-7-12,80,70,62,63,60,57,87,72,48,30.15,29.89,10,2,13,0.00
2013-7-13,80,70,61,70,64,57,94,82,68,30.25,30.15,6,1,10,0.00
2013-7-14,86,77,68,72,69,67,98,78,54,30.24,30.14,10,2,14,0.00
2013-7-15,91,79,70,72,68,65,92,72,43,30.14,30.04,13,2,18,0.00
2013-7-16,90,79,69,72,67,63,83,68,47,30.10,30.06,11,2,18,0.00
2013-7-17,91,81,70,73,68,66,87,67,47,30.11,29.90,10,2,13,0.00
2013-7-18,90,80,72,76,72,69,95,77,55,29.94,29.87,12,2,21,0.03
2013-7-19,93,82,70,74,71,69,96,71,47,29.87,29.64,16,6,38,0.00
2013-7-20,87,79,70,72,66,61,79,64,53,29.73,29.58,16,5,32,0.00
2013-7-21,81,71,64,70,64,60,95,79,53,29.93,29.73,7,2,12,0.01
2013-7-22,79,69,63,69,65,62,98,90,68,29.97,29.84,6,1,10,0.00
2013-7-23,76,68,65,70,66,64,98,93,76,29.84,29.48,9,1,11,1.53
2013-7-24,80,71,57,69,63,48,98,76,55,29.91,29.51,22,5,24,0.00
2013-7-25,69,61,54,58,52,45,92,75,59,30.06,29.92,9,2,14,0.00
2013-7-26,75,65,60,66,61,58,98,88,67,30.03,29.90,11,3,16,0.29
2013-7-27,83,70,58,63,59,55,95,72,41,30.00,29.93,10,4,15,0.00
2013-7-28,80,69,60,70,64,59,98,86,64,29.95,29.90,7,2,13,0.05
2013-7-29,83,72,65,71,66,63,98,84,51,29.98,29.89,13,3,16,0.00
2013-7-30,79,69,59,63,56,53,93,65,44,30.04,29.98,12,3,20,0.00
2013-7-31,80,69,58,65,58,54,95,70,43,30.08,29.98,7,2,10,0.00